Погода в Другой Реке

Россия / Республика Карелия     61°15′38″N   35°32′43″E
темп.,
°C
ветер,
м/с
пор.,
м/с
влажн.,
%
обл.,
%
осадки,
мм/ч
давл.,
гПа
погр.,
м
8 мая, сб
сб800:00+4ю229475 0.1 100759
03:00+2ю229675 0.1 100842
06:00+3вюв2694100 0.0 1007136
09:00+6вюв51184100 0.0 1005365
12:00+8юв51280100 0.3 10031236
15:00+7ююв61290100 0.8 1004893
18:00+7ююз4787100 0.3 1004540
21:00+5юз3887100 0.3 1005444
9 мая, вс
вс900:00+2зюз4887100 0.0 1006588
03:00+3з4987100 0.2 1006755
06:00+3зсз41083100 0.0 1008763
09:00+5сз6106053 0.0 1009952
12:00+8сз58444 0.0 10111578
15:00+9сз583888 0.0 10142066
18:00+9зсз374585 0.0 10162046
21:00+5зюз39680 0.0 1018158
10 мая, пн
пн1000:00+3юз38745 0.0 1020132
03:00+2юз397681 0.0 1021166
06:00+4ююз3107094 0.0 1022259
09:00+9ююз5105420 0.0 1022753
12:00+12ююз61048100 0.0 10221579
15:00+8ююз51179100 0.1 1023787
18:00+8ююз41182100 0.4 1023451
21:00+10ююз41278100 0.4 1023440
11 мая, вт
вт1100:00+11ююз51478100 0.0 1023443
03:00+10юз5148443 0.0 1023393
06:00+10ююз5138562 0.0 1024410
09:00+14юз597088 0.0 1025486
12:00+18юз595316 0.0 1026978
15:00+20ююз694442 0.0 10261191
18:00+19юз49505 0.0 10261169
21:00+14ююз3870100 0.0 1026140
12 мая, ср
ср1200:00+11ююз38835 0.0 1027129
03:00+10ююз388936 0.0 1028164
06:00+11ююз288312 0.0 1028205
09:00+16ююз34611 0.0 1028410
12:00+18ююв45500 0.0 1028973
15:00+20юв45430 0.0 1027980
18:00+18юв35460 0.0 1026286
21:00+14ююв33650 0.0 102629